Back to catalog

COSMOS 1275 DEB

AlivePO
NORAD 42133·DEBRIS·🇷🇺 Russia

Launched Jun 4, 1981 from Plesetsk Cosmodrome

Loading…

Next Passes (next 24 hours)

TLE

FreshSource: Space-Track

Epoch: Sep 13, 2026, 11:18 UTC

1 42133U 81053QV  26256.47105276  .00000824  00000-0  98455-3 0  9991
2 42133  83.1297 308.2573 0161352 298.5085  59.9897 13.60796760132286

Track COSMOS 1275 DEB in real time with AllMySat

Download on the App Store